[Date Prev][Date Next][Thread Prev][Thread Next] - [Date Index][Thread Index][Author Index]

2 Line ISS Keps 4-29



ISS
1 25544U 98067A   01119.11889198  .00081113  00000-0  10386-2 0  9148
2 25544  51.5715 335.9423 0016714 351.5442 144.1741 15.58315565139412

----
Via the sarex mailing list at AMSAT.ORG courtesy of AMSAT-NA.
To unsubscribe, send "unsubscribe sarex" to Majordomo@amsat.org



AMSAT Top AMSAT Home